Location: Sungai Bunut
(2.6333°N, 113.7333°E)
Time: 06:21:21
(UTC+00:00)

S-56A Canister/Altair - Pass Details

Date: 07 December 2023
Orbit: 639 x 2488 km, 38.9° (Epoch: 04 March)

Event Time Altitude Azimuth Distance (km) Brightness Sun altitude
Rises 15:02:35 0° 247° (WSW) 5,245 12.1 -63.2°
Reaches altitude 10° 15:12:45 10° 205° (SSW) 4,826 11.8 -64.7°
Maximum altitude 15:13:13 10° 203° (SSW) 4,844 11.8 -64.8°
Drops below altitude 10° 15:13:39 10° 201° (SSW) 4,864 11.8 -64.9°
Sets 15:25:36 0° 159° (SSE) 6,158 12.3 -66.5°
